Location: Pitton
(51.0667°N, 1.7000°W)
Time: 02:21:35
(UTC+00:00)

Nadezhda 3 Rocket - Pass Details

Date: 17 September 2019
Orbit: 958 x 999 km, 82.9° (Epoch: 17 October)

Event Time Altitude Azimuth Distance (km) Brightness Sun altitude
Exits shadow 21:51:09 70° 243° (WSW) 1,025 4.0 -30.1°
Maximum altitude 21:51:39 74° 281° (WNW) 1,005 4.0 -30.1°
Drops below altitude 10° 21:57:53 10° 7° (N) 2,723 6.8 -30.7°
Sets 22:00:25 0° 10° (N) 3,680 7.6 -31.0°
